Flag for U.S.A. Weather past 2 weeks in Sheboygan, Wisconsin, U.S.A.

38 °F

Rain. Fog.

Feels Like: 31 °F
Forecast: 33 / 41 °F
Wind: 10 mph from Southeast

Location: Sheboygan County Memorial Airport

Current Time: Dec 1, 2015 at 2:34:52 AM

Latest Report: Dec 1, 2015 at 12:53 AM

Visibility: 4 mi

Pressure: 29.92 "Hg

Humidity: 90%

Dew point: 35 °F

Location of SheboyganLocation

Historic Weather in Sheboygan — Graph


Sheboygan temperature yesterday

Maximum temperature yesterday: 41 °F (at 8:53 PM)
Minimum temperature yesterday: 30 °F (at 12:53 AM)
Average temperature yesterday: 37 °F

Past Weeks' High & Low Weather Summary

High57 °F (Nov 18, 2:53 PM)97% (Nov 17, 1:53 AM)30.52 "Hg (Nov 17, 1:53 AM)
Low14 °F (Nov 22, 6:53 AM)38% (Nov 20, 12:53 PM)29.35 "Hg (Nov 18, 2:53 PM)
Average37 °F75%30.11 "Hg
* Reported Nov 16 12:53 AM — Dec 1 12:53 AM, Sheboygan, Weather by CustomWeather, © 2015

Note: Actual official high and low records may vary slightly from our data, if they occured in-between our weather recording intervals... More about our weather records


Sheboygan weather history for previous 24 hours

Time TempWeatherWind HumidityBarometerVisibility
12:53 AM
Tue, Dec 1
38 °FRain. Fog.10 mph90%29.92 "Hg4 mi
11:53 PM
Mon, Nov 30
38 °FRain. Fog.12 mph90%29.94 "Hg5 mi
10:53 PM38 °FRain. Fog.10 mph86%29.97 "Hg4 mi
9:53 PM40 °FOvercast.8 mph77%29.99 "Hg10 mi
8:53 PM41 °FOvercast.12 mph74%30.00 "Hg10 mi
7:53 PM40 °FMostly cloudy.9 mph83%30.02 "Hg10 mi
6:53 PM39 °FLight rain. Overcast.9 mph86%30.06 "Hg10 mi
5:53 PM39 °FOvercast.13 mph86%30.08 "Hg10 mi
4:53 PM39 °FOvercast.8 mph86%30.10 "Hg10 mi
3:53 PM39 °FLight rain. Overcast.10 mph86%30.11 "Hg10 mi
2:53 PM39 °FLow clouds.12 mph86%30.13 "Hg10 mi
1:53 PM39 °FMore clouds than sun.13 mph89%30.15 "Hg10 mi
12:53 PM38 °FLight rain. Mostly cloudy.7 mph90%30.19 "Hg9 mi
11:53 AM39 °FMostly cloudy.7 mph86%30.21 "Hg10 mi
10:53 AM38 °FLight rain. Mostly cloudy.5 mph86%30.26 "Hg7 mi
10:01 AM37 °FMostly cloudy.5 mph93%30.25 "Hg10 mi
9:53 AM37 °FMore clouds than sun.7 mph89%30.26 "Hg10 mi
8:53 AM36 °FLight rain. Fog.9 mph89%30.25 "Hg6 mi
7:53 AM35 °FCloudy.5 mph85%30.28 "Hg10 mi
6:53 AM35 °FOvercast.No wind88%30.29 "Hg10 mi
5:53 AM35 °FOvercast.5 mph85%30.27 "Hg10 mi
4:53 AM33 °FOvercast.No wind92%30.28 "Hg10 mi
3:53 AM34 °FOvercast.No wind88%30.27 "Hg10 mi
2:53 AM32 °FOvercast.3 mph88%30.29 "Hg10 mi
Weather by CustomWeather, © 2015

See weather overviewHow to use our weather pages